#timestamp,LO_Frequency,Hit,StdDev 
1612252815.9,286046993.1,N
1612252835.7,286046993.0,N
1612252855.6,286046987.1,Y
1612252875.4,286046992.2,P
1612252895.2,286046988.8,P
1612252915.1,286046993.7,P
1612252916.0,286046993.7,Y
1612252935.8,286046997.6,P
1612252955.6,286046997.9,N
1612252975.5,286047000.1,N
1612252995.3,286047007.1,N
1612253015.2,286047009.7,N
1612253035.9,286047006.5,N
1612253055.7,286047009.2,N
1612253075.6,286047010.6,N
1612253095.4,286047003.6,N
1612253115.2,286047006.8,N
1612253135.1,286047006.9,N
1612253136.0,286047006.9,N
1612253155.8,286047002.9,N
1612253175.7,286047006.6,N
1612253195.5,286047006.2,N
1612253215.3,286047010.4,N
1612253235.2,286047006.2,N
1612253255.0,286047007.6,N
1612253255.9,286047007.6,N
1612253275.7,286047007.0,N
1612253295.6,286047003.3,N
1612253315.4,286047004.1,N
1612253335.3,286047008.9,N
1612253355.1,286047014.8,Y
1612253356.0,286047014.8,P
1612253375.8,286047008.7,N
1612253395.7,286047009.1,N
1612253415.5,286047004.9,N
1612253435.4,286047013.9,Y
1612253485.2,286047004.8,E
1612253495.1,286047002.9,N
1612253515.9,286047002.6,P
1612253535.7,286046999.0,P
1612253555.6,286046989.2,Y
1612253575.4,286046985.1,P
1612253595.2,286046983.3,N
1612253615.1,286046986.1,N
1612253616.0,286046986.1,N
1612253635.8,286046989.4,N
1612253655.6,286046984.9,N
1612253675.5,286046976.3,Y
1612253695.3,286046990.2,P
1612253715.2,286046992.2,P
1612253735.9,286047001.2,N
1612253755.7,286046999.5,N
1612253775.6,286046997.7,N
1612253795.4,286047000.8,N
1612253815.2,286047000.2,N
1612253835.1,286047000.8,N
1612253836.0,286047000.8,N
1612253855.8,286046999.7,N
1612253875.7,286046995.1,N
1612253895.5,286046996.9,N
1612253915.3,286046999.2,N
1612253935.2,286047003.0,N
1612253955.0,286046998.6,N
1612253955.9,286046998.6,N
1612253975.8,286046993.1,N
1612253995.6,286046989.7,N
1612254015.4,286046993.0,N
1612254035.3,286046995.2,N
1612254055.1,286046998.1,N
1612254075.8,286046998.5,N
1612254095.7,286046993.6,N
1612254115.5,286046994.8,N
1612254135.4,286046994.1,N
1612254155.2,286046997.9,N
1612254175.0,286047008.5,N
1612254175.9,286047008.5,N
1612254195.8,286047011.8,N
1612254215.6,286047016.9,Y
1612254235.4,286047022.0,P
1612254255.3,286047019.6,N
1612254275.1,286047020.1,N
1612254295.9,286047020.1,N
1612254315.7,286047011.0,N
1612254335.5,286047008.7,N
1612254355.4,286047010.7,N
1612254375.2,286047012.7,N
1612254395.0,286047010.9,N
1612254396.0,286047010.9,N
1612254415.8,286047006.5,N
1612254435.6,286047005.3,N
1612254455.5,286047007.5,N
1612254475.3,286047010.2,N
1612254495.1,286047008.1,N
1612254515.9,286047007.5,N
1612254535.7,286047009.2,N
1612254555.6,286047007.6,N
1612254575.4,286047004.2,N
1612254595.2,286047004.8,N
1612254615.1,286047005.4,N
1612254616.0,286047005.4,N
1612254635.8,286047005.7,N
1612254655.6,286047011.3,N
1612254675.5,286047013.2,N
1612254695.3,286047014.5,N
1612254715.2,286047018.9,Y
1612254735.9,286047016.5,P
1612254755.7,286047014.2,P
1612254775.6,286047012.9,P
1612254795.4,286047012.1,Y
1612254815.3,286047000.6,P
1612254835.1,286046998.0,N
1612254836.0,286046998.0,N
1612254855.8,286046993.7,N
1612254875.7,286046990.3,N
1612254895.5,286046990.6,N
1612254915.3,286046986.7,N
1612254935.2,286046986.5,N
1612254955.0,286046979.6,N
1612254955.9,286046979.6,N
1612254975.8,286046975.3,N
1612254995.6,286046969.2,Y
1612255015.4,286046975.8,P
1612255035.3,286046976.4,P
1612255055.1,286046980.1,N
1612255075.8,286046977.8,Y
1612255095.7,286046996.2,P
1612255115.5,286046992.0,N
1612255135.4,286046990.9,N
1612255155.2,286046988.6,N
1612255175.0,286046990.4,N
1612255175.9,286046990.4,N
1612255195.8,286046990.2,N
1612255215.6,286046993.1,N
1612255235.4,286046999.2,N
1612255255.3,286046995.4,N
1612255275.1,286046995.0,N
1612255295.9,286046995.9,N
1612255315.7,286046990.3,N
1612255335.5,286046996.4,N
1612255355.4,286046998.8,N
1612255375.2,286047000.5,N
1612255395.0,286046999.9,N
1612255396.0,286046999.9,N
1612255415.8,286046998.5,N
1612255435.6,286046991.0,N
1612255455.5,286046995.4,N
1612255475.3,286046991.4,N
1612255495.1,286046986.6,N
1612255515.9,286046989.5,N
1612255535.7,286046989.7,N
1612255555.6,286046993.2,N
1612255575.4,286046994.3,N
1612255595.2,286046993.9,N
1612255615.1,286046993.3,N
1612255616.0,286046993.3,N
1612255635.8,286046993.2,N
1612255655.6,286046990.5,N
1612255675.5,286046991.8,N
1612255695.3,286046983.7,Y
1612255715.2,286046990.1,P
1612255735.9,286046992.7,P
1612255755.7,286046990.1,P
1612255775.6,286046993.4,Y
1612255795.4,286046999.9,P
1612255815.2,286047004.7,N
1612255835.1,286047006.8,N
1612255836.0,286047006.8,N
1612255855.8,286047013.8,N
1612255875.7,286047018.0,N
1612255895.5,286047017.0,N
1612255915.3,286047015.3,N
1612255935.2,286047015.6,N
1612255955.0,286047010.2,N
1612255955.9,286047010.2,N
1612255975.8,286047014.6,N
1612255995.6,286047021.7,N
1612256015.4,286047022.2,N
1612256035.3,286047022.4,N
1612256055.1,286047027.8,Y
1612256075.9,286047019.5,P
1612256095.7,286047021.1,P
1612256115.5,286047023.2,P
1612256135.4,286047026.3,Y
1612256155.2,286047010.7,P
1612256175.0,286047019.9,P
1612256176.0,286047019.9,P
1612256195.8,286047023.4,Y
1612256215.6,286047006.5,P
1612256235.5,286047011.4,N
1612256255.3,286047016.2,P
1612256275.1,286047025.4,Y
1612256295.9,286047013.6,P
1612256315.7,286047011.3,P
1612256335.6,286047013.7,P
1612256355.4,286047016.1,Y
1612256375.2,286047005.6,P
1612256395.1,286047005.4,N
1612256396.0,286047005.4,N
